TimeEST,TemperatureF,Dew PointF,Humidity,Sea Level PressureIn,VisibilityMPH,Wind Direction,Wind SpeedMPH,Gust SpeedMPH,PrecipitationIn,Events,Conditions,WindDirDegrees,DateUTC
12:54 AM,52.0,39.0,61,29.84,10.0,WNW,5.8,-,N/A,,Clear,300,2013-11-03 04:54:00
1:54 AM,50.0,39.0,66,29.87,10.0,West,5.8,-,N/A,,Scattered Clouds,280,2013-11-03 05:54:00
1:54 AM,50.0,39.9,68,29.88,10.0,WNW,8.1,-,N/A,,Partly Cloudy,300,2013-11-03 06:54:00
2:54 AM,50.0,39.9,68,29.89,10.0,WNW,8.1,-,N/A,,Partly Cloudy,300,2013-11-03 07:54:00
3:54 AM,48.9,41.0,74,29.91,10.0,NW,8.1,-,N/A,,Partly Cloudy,320,2013-11-03 08:54:00
4:54 AM,50.0,42.1,74,29.94,10.0,NNW,9.2,-,N/A,,Overcast,330,2013-11-03 09:54:00
5:54 AM,50.0,39.9,68,29.99,10.0,NNW,12.7,-,N/A,,Overcast,330,2013-11-03 10:54:00
6:54 AM,48.0,37.9,68,30.03,10.0,NNW,13.8,-,N/A,,Overcast,330,2013-11-03 11:54:00
7:54 AM,48.0,37.0,66,30.07,10.0,North,15.0,21.9,N/A,,Overcast,360,2013-11-03 12:54:00
8:54 AM,48.9,36.0,61,30.12,10.0,NNW,12.7,-,N/A,,Overcast,340,2013-11-03 13:54:00
9:54 AM,50.0,35.1,57,30.14,10.0,North,15.0,-,N/A,,Overcast,350,2013-11-03 14:54:00
10:54 AM,50.0,34.0,54,30.17,10.0,NNW,15.0,21.9,N/A,,Overcast,330,2013-11-03 15:54:00
11:54 AM,51.1,34.0,52,30.18,10.0,North,13.8,-,N/A,,Scattered Clouds,10,2013-11-03 16:54:00
12:54 PM,53.1,32.0,45,30.17,10.0,NNW,15.0,21.9,N/A,,Clear,340,2013-11-03 17:54:00
1:54 PM,54.0,27.0,35,30.19,10.0,North,13.8,24.2,N/A,,Clear,350,2013-11-03 18:54:00
2:54 PM,53.1,24.1,32,30.22,10.0,North,18.4,23.0,N/A,,Clear,360,2013-11-03 19:54:00
3:54 PM,52.0,25.0,35,30.24,10.0,NNW,13.8,-,N/A,,Clear,330,2013-11-03 20:54:00
4:54 PM,48.0,23.0,37,30.28,10.0,NNW,16.1,-,N/A,,Clear,340,2013-11-03 21:54:00
5:54 PM,46.0,24.1,42,30.33,10.0,North,13.8,-,N/A,,Clear,350,2013-11-03 22:54:00
6:54 PM,42.1,21.0,43,30.36,10.0,North,18.4,-,N/A,,Clear,360,2013-11-03 23:54:00
7:54 PM,39.9,21.0,47,30.39,10.0,North,15.0,20.7,N/A,,Clear,10,2013-11-04 00:54:00
8:54 PM,39.0,21.0,49,30.41,10.0,North,10.4,-,N/A,,Clear,10,2013-11-04 01:54:00
9:54 PM,37.0,21.0,52,30.45,10.0,North,6.9,-,N/A,,Clear,360,2013-11-04 02:54:00
10:54 PM,36.0,21.0,55,30.47,10.0,NW,5.8,-,N/A,,Clear,320,2013-11-04 03:54:00